Total_Precipitation_Accumulation
0.00 0.00 0.01 0.02 0.03 0.08 0.18 0.08 0.02 0.01 0.00 0.00 0.00 0.00 0.00 0.00 0.01 0.02 0.00 0.00 0.00 0.00 0.00 0.00 0.00 0.00 0.00 0.00 0.00 0.00 0.00 0.00 0.00 0.00 0.00 0.00 0.00 0.00 0.00 0.00 0.00 0.01 0.01 0.01 0.01 0.01 0.01 0.01 0.00
0.00 0.00 0.01 0.03 0.04 0.12 0.23 0.10 0.03 0.01 0.00 0.00 0.00 0.00 0.00 0.00 0.00 0.00 0.00 0.00 0.00 0.00 0.00 0.00 0.00 0.00 0.00 0.00 0.00 0.00 0.00 0.00 0.00 0.00 0.00 0.00 0.00 0.00 0.00 0.00 0.00 0.01 0.01 0.01 0.01 0.01 0.01 0.01 0.00
0.00 0.00 0.01 0.01 0.04 0.18 0.35 0.12 0.05 0.03 0.02 0.01 0.00 0.00 0.00 0.00 0.00 0.00 0.00 0.00 0.00 0.00 0.00 0.00 0.00 0.00 0.00 0.00 0.00 0.00 0.00 0.00 0.00 0.00 0.00 0.00 0.01 0.01 0.01 0.01 0.01 0.01 0.01 0.01 0.01 0.01 0.01 0.01 0.00
0.00 0.00 0.00 0.00 0.02 0.07 0.16 0.14 0.10 0.08 0.05 0.02 0.01 0.00 0.00 0.00 0.00 0.00 0.00 0.00 0.00 0.00 0.00 0.00 0.00 0.00 0.00 0.00 0.00 0.00 0.00 0.00 0.00 0.00 0.00 0.01 0.01 0.01 0.01 0.01 0.02 0.02 0.02 0.02 0.02 0.02 0.02 0.01 0.00
0.00 0.00 0.00 0.00 0.01 0.02 0.05 0.06 0.12 0.12 0.05 0.01 0.00 0.00 0.00 0.00 0.00 0.00 0.00 0.00 0.00 0.00 0.00 0.00 0.00 0.00 0.00 0.00 0.00 0.00 0.00 0.00 0.00 0.00 0.00 0.01 0.01 0.01 0.01 0.02 0.02 0.02 0.02 0.02 0.02 0.02 0.02 0.02 0.01
0.00 0.00 0.00 0.00 0.00 0.01 0.03 0.05 0.11 0.14 0.08 0.02 0.00 0.00 0.00 0.00 0.00 0.00 0.00 0.00 0.00 0.00 0.00 0.01 0.01 0.01 0.01 0.00 0.00 0.00 0.00 0.00 0.00 0.00 0.00 0.00 0.01 0.01 0.01 0.01 0.01 0.02 0.02 0.02 0.02 0.02 0.02 0.02 0.02
0.00 0.00 0.00 0.00 0.00 0.01 0.03 0.05 0.08 0.10 0.09 0.05 0.02 0.00 0.00 0.00 0.00 0.00 0.00 0.00 0.00 0.00 0.00 0.01 0.01 0.01 0.01 0.01 0.01 0.01 0.01 0.01 0.01 0.01 0.01 0.00 0.00 0.01 0.01 0.01 0.01 0.01 0.01 0.01 0.01 0.01 0.01 0.01 0.02
0.00 0.00 0.00 0.00 0.00 0.01 0.02 0.04 0.06 0.07 0.10 0.07 0.03 0.02 0.00 0.00 0.00 0.00 0.00 0.00 0.00 0.00 0.01 0.01 0.02 0.03 0.03 0.02 0.02 0.02 0.02 0.02 0.02 0.01 0.01 0.01 0.01 0.01 0.01 0.02 0.02 0.02 0.03 0.03 0.02 0.02 0.02 0.03 0.05
0.00 0.00 0.00 0.00 0.00 0.00 0.01 0.03 0.04 0.03 0.02 0.03 0.05 0.04 0.02 0.00 0.00 0.00 0.00 0.00 0.00 0.01 0.01 0.02 0.03 0.04 0.05 0.05 0.04 0.05 0.05 0.06 0.05 0.05 0.04 0.04 0.03 0.02 0.03 0.07 0.11 0.12 0.14 0.17 0.16 0.14 0.15 0.17 0.14
0.00 0.00 0.00 0.00 0.00 0.00 0.00 0.00 0.01 0.00 0.01 0.04 0.09 0.10 0.07 0.02 0.00 0.00 0.00 0.00 0.01 0.01 0.02 0.03 0.03 0.04 0.06 0.06 0.06 0.08 0.08 0.09 0.09 0.10 0.16 0.16 0.16 0.11 0.07 0.20 0.30 0.32 0.39 0.42 0.44 0.57 0.52 0.43 0.28
0.00 0.00 0.00 0.00 0.00 0.00 0.00 0.00 0.00 0.00 0.00 0.01 0.04 0.12 0.08 0.01 0.00 0.00 0.00 0.01 0.03 0.04 0.04 0.04 0.03 0.03 0.04 0.06 0.06 0.08 0.10 0.13 0.18 0.21 0.30 0.42 0.48 0.37 0.27 0.38 0.49 0.55 0.61 0.62 0.78 0.93 0.67 0.55 0.47
0.00 0.00 0.00 0.00 0.00 0.00 0.00 0.00 0.00 0.00 0.00 0.00 0.02 0.12 0.14 0.06 0.01 0.00 0.01 0.03 0.08 0.15 0.17 0.16 0.13 0.10 0.08 0.09 0.10 0.11 0.12 0.17 0.24 0.34 0.43 0.72 0.76 0.74 0.73 0.73 0.62 0.67 0.72 0.93 0.93 0.86 0.72 0.67 0.56
0.00 0.00 0.00 0.00 0.00 0.00 0.00 0.00 0.00 0.00 0.00 0.00 0.00 0.02 0.10 0.10 0.04 0.02 0.03 0.08 0.19 0.37 0.53 0.54 0.51 0.37 0.28 0.25 0.23 0.23 0.24 0.27 0.33 0.48 0.61 0.89 1.00 0.98 1.02 0.79 0.73 0.68 0.80 0.97 0.90 0.71 0.68 0.73 0.75
0.00 0.00 0.00 0.00 0.00 0.00 0.00 0.00 0.00 0.00 0.00 0.00 0.00 0.01 0.04 0.08 0.07 0.08 0.13 0.24 0.46 0.72 0.95 0.99 0.95 0.82 0.70 0.59 0.57 0.63 0.62 0.52 0.47 0.62 0.71 1.05 1.29 1.20 1.03 0.96 0.92 0.86 0.99 0.99 0.91 0.83 0.81 0.80 0.84
0.00 0.00 0.00 0.00 0.00 0.00 0.00 0.00 0.00 0.00 0.00 0.00 0.01 0.02 0.04 0.07 0.11 0.22 0.36 0.61 0.92 1.17 1.33 1.47 1.54 1.41 1.29 1.21 1.10 1.01 0.93 0.85 0.77 0.75 0.74 1.01 1.24 1.24 1.21 1.08 0.94 0.96 0.99 1.00 1.05 1.03 0.93 0.79 0.78
0.00 0.00 0.00 0.00 0.00 0.00 0.00 0.00 0.01 0.01 0.01 0.01 0.03 0.06 0.11 0.16 0.24 0.38 0.51 0.76 1.14 1.53 1.98 2.15 2.03 1.87 1.72 1.55 1.37 1.32 1.30 1.25 1.08 0.86 0.76 0.83 0.98 1.08 1.08 0.93 0.88 0.93 0.78 0.72 0.73 0.70 0.66 0.64 0.68
0.00 0.00 0.00 0.00 0.00 0.00 0.00 0.00 0.01 0.01 0.01 0.03 0.06 0.12 0.20 0.26 0.37 0.53 0.66 0.91 1.30 1.89 2.59 2.67 2.28 2.00 1.82 1.69 1.59 1.54 1.49 1.26 1.11 0.94 0.83 0.76 0.71 0.65 0.62 0.53 0.53 0.58 0.53 0.45 0.41 0.48 0.47 0.46 0.53
0.00 0.00 0.00 0.00 0.00 0.00 0.00 0.00 0.02 0.02 0.03 0.04 0.08 0.14 0.21 0.28 0.39 0.51 0.69 1.04 1.67 2.49 3.09 3.06 2.57 2.18 1.94 1.78 1.60 1.41 1.31 1.16 1.00 0.88 0.78 0.62 0.55 0.46 0.36 0.28 0.26 0.25 0.25 0.25 0.26 0.24 0.28 0.26 0.28
0.00 0.00 0.00 0.00 0.00 0.00 0.00 0.01 0.02 0.04 0.05 0.05 0.08 0.09 0.13 0.22 0.35 0.57 1.00 1.67 2.48 3.19 3.35 2.93 2.49 2.21 1.95 1.63 1.15 0.84 0.72 0.69 0.63 0.53 0.46 0.39 0.33 0.29 0.24 0.18 0.14 0.10 0.09 0.09 0.11 0.13 0.13 0.12 0.18
0.00 0.00 0.00 0.00 0.00 0.00 0.00 0.01 0.02 0.03 0.03 0.03 0.05 0.08 0.16 0.33 0.62 1.15 1.96 2.48 2.51 2.43 2.06 1.67 1.48 1.36 1.09 0.80 0.56 0.45 0.40 0.37 0.33 0.31 0.31 0.29 0.25 0.23 0.19 0.16 0.14 0.09 0.06 0.04 0.04 0.05 0.06 0.06 0.07
0.00 0.01 0.00 0.00 0.00 0.00 0.01 0.01 0.01 0.01 0.02 0.02 0.05 0.12 0.34 0.68 1.13 1.78 2.19 2.09 1.55 1.07 0.88 0.80 0.74 0.54 0.39 0.35 0.31 0.27 0.24 0.24 0.22 0.21 0.22 0.22 0.18 0.17 0.15 0.13 0.11 0.09 0.07 0.06 0.05 0.04 0.05 0.05 0.04
0.00 0.00 0.00 0.00 0.00 0.01 0.01 0.05 0.05 0.04 0.05 0.07 0.10 0.18 0.35 0.58 0.82 1.11 1.24 0.99 0.82 0.71 0.63 0.65 0.57 0.34 0.27 0.23 0.19 0.18 0.17 0.19 0.19 0.18 0.19 0.18 0.16 0.16 0.14 0.11 0.08 0.06 0.06 0.07 0.06 0.04 0.06 0.07 0.06
0.00 0.00 0.00 0.00 0.00 0.01 0.02 0.06 0.09 0.08 0.12 0.13 0.16 0.18 0.24 0.41 0.48 0.45 0.44 0.40 0.39 0.40 0.43 0.51 0.50 0.42 0.34 0.28 0.22 0.20 0.18 0.17 0.18 0.19 0.19 0.20 0.20 0.18 0.17 0.17 0.14 0.10 0.06 0.06 0.05 0.05 0.06 0.08 0.09
0.01 0.01 0.01 0.01 0.03 0.09 0.08 0.09 0.18 0.26 0.37 0.37 0.28 0.21 0.26 0.39 0.42 0.34 0.26 0.22 0.24 0.25 0.27 0.33 0.43 0.52 0.49 0.43 0.34 0.29 0.23 0.20 0.19 0.18 0.19 0.18 0.18 0.18 0.17 0.18 0.18 0.17 0.15 0.10 0.06 0.05 0.07 0.09 0.11
0.03 0.01 0.01 0.02 0.10 0.17 0.11 0.12 0.23 0.36 0.45 0.31 0.15 0.11 0.21 0.36 0.45 0.42 0.31 0.23 0.18 0.17 0.15 0.13 0.15 0.24 0.28 0.28 0.30 0.31 0.29 0.25 0.20 0.17 0.15 0.16 0.15 0.16 0.16 0.16 0.17 0.18 0.18 0.17 0.13 0.09 0.07 0.08 0.10
0.02 0.01 0.01 0.01 0.02 0.05 0.08 0.20 0.37 0.50 0.34 0.14 0.05 0.05 0.15 0.22 0.25 0.25 0.19 0.13 0.08 0.06 0.06 0.04 0.04 0.05 0.07 0.09 0.13 0.17 0.21 0.17 0.15 0.20 0.17 0.17 0.21 0.22 0.21 0.16 0.14 0.16 0.17 0.18 0.16 0.14 0.12 0.10 0.10
0.02 0.01 0.01 0.02 0.03 0.06 0.15 0.28 0.37 0.43 0.30 0.13 0.06 0.04 0.05 0.08 0.09 0.10 0.10 0.08 0.06 0.04 0.03 0.03 0.02 0.02 0.02 0.03 0.05 0.09 0.15 0.15 0.14 0.16 0.17 0.16 0.22 0.23 0.21 0.18 0.14 0.14 0.15 0.16 0.17 0.16 0.17 0.17 0.17
0.02 0.01 0.01 0.02 0.04 0.06 0.10 0.31 0.46 0.44 0.32 0.13 0.08 0.06 0.06 0.08 0.07 0.07 0.06 0.06 0.05 0.04 0.04 0.04 0.03 0.02 0.02 0.02 0.03 0.05 0.11 0.15 0.15 0.14 0.17 0.18 0.18 0.18 0.17 0.16 0.13 0.11 0.12 0.14 0.15 0.17 0.21 0.23 0.27
0.02 0.02 0.02 0.02 0.03 0.05 0.06 0.17 0.23 0.20 0.13 0.09 0.05 0.03 0.04 0.04 0.05 0.04 0.04 0.04 0.04 0.03 0.03 0.03 0.03 0.03 0.02 0.02 0.02 0.02 0.05 0.09 0.14 0.17 0.18 0.19 0.18 0.17 0.14 0.14 0.13 0.12 0.11 0.13 0.15 0.18 0.20 0.23 0.28
0.02 0.02 0.02 0.03 0.03 0.03 0.05 0.14 0.10 0.10 0.09 0.06 0.02 0.01 0.01 0.01 0.01 0.01 0.02 0.02 0.02 0.03 0.03 0.04 0.04 0.03 0.03 0.02 0.02 0.01 0.01 0.03 0.06 0.10 0.14 0.16 0.15 0.14 0.14 0.13 0.12 0.10 0.10 0.12 0.16 0.19 0.20 0.22 0.26